• In Hungary
  • List of Countries
  • For 7 days
  • Water Temperature
  • Satellite Maps
  • Weather Map
  • News
  • Weather Widgets
  • user-avatar
    Login

    Hourly Weather Mortsel

    Today, 15 December, Friday

    Time Temperature Precipitation Wind Pressure Humidity
    00:00 0°C° 0 mm 4 mps 741 mmHg 90%
    01:00 0°C° 0 mm 4 mps 741 mmHg 90%
    02:00 0°C° 0 mm 4 mps 742 mmHg 90%
    03:00 0°C° 0 mm 5 mps 742 mmHg 90%
    04:00 0°C° 0 mm 4 mps 742 mmHg 91%
    05:00 -1°C° 0 mm 4 mps 742 mmHg 92%
    06:00 0°C° 0 mm 3 mps 742 mmHg 93%
    07:00 +1°C° 0 mm 3 mps 742 mmHg 93%
    08:00 +1°C° 0 mm 3 mps 742 mmHg 93%
    09:00 +1°C° 0 mm 3 mps 743 mmHg 93%
    10:00 +2°C° 0 mm 3 mps 743 mmHg 89%
    11:00 +3°C° 0 mm 3 mps 744 mmHg 86%
    12:00 +4°C° 0 mm 3 mps 744 mmHg 83%
    13:00 +4°C° 0.1 mm 2 mps 744 mmHg 85%
    14:00 +4°C° 0.1 mm 2 mps 745 mmHg 87%
    15:00 +5°C° 0.1 mm 1 mps 745 mmHg 90%
    16:00 +4°C° 0.1 mm 1 mps 746 mmHg 91%
    17:00 +4°C° 0.1 mm 1 mps 747 mmHg 91%
    18:00 +4°C° 0.1 mm 1 mps 747 mmHg 92%
    19:00 +3°C° 0 mm 1 mps 748 mmHg 92%
    20:00 +2°C° 0 mm 2 mps 749 mmHg 93%
    21:00 +2°C° 0 mm 2 mps 750 mmHg 93%
    22:00 +2°C° 0 mm 2 mps 751 mmHg 92%
    23:00 +2°C° 0 mm 2 mps 751 mmHg 92%

    Tomorrow, 16 December, Saturday

    Time Temperature Precipitation Wind Pressure Humidity
    00:00 +2°C° 0 mm 2 mps 752 mmHg 91%
    01:00 +2°C° 0.1 mm 2 mps 753 mmHg 90%
    02:00 +1°C° 0.1 mm 3 mps 753 mmHg 89%
    03:00 +1°C° 0.1 mm 3 mps 754 mmHg 88%
    04:00 +1°C° 0.1 mm 3 mps 755 mmHg 87%
    05:00 +1°C° 0.1 mm 3 mps 755 mmHg 86%
    06:00 +2°C° 0.1 mm 3 mps 756 mmHg 85%
    07:00 +2°C° 0.1 mm 3 mps 756 mmHg 84%
    08:00 +2°C° 0.1 mm 3 mps 757 mmHg 83%
    09:00 +1°C° 0.1 mm 4 mps 757 mmHg 81%
    10:00 +3°C° 0.2 mm 4 mps 758 mmHg 77%
    11:00 +3°C° 0.2 mm 5 mps 758 mmHg 73%
    12:00 +5°C° 0.2 mm 5 mps 758 mmHg 68%
    13:00 +3°C° 0.2 mm 5 mps 759 mmHg 70%
    14:00 +3°C° 0.2 mm 5 mps 759 mmHg 72%
    15:00 +3°C° 0.2 mm 5 mps 760 mmHg 74%
    16:00 +2°C° 0.2 mm 5 mps 760 mmHg 76%
    17:00 +3°C° 0.2 mm 4 mps 761 mmHg 78%
    18:00 +3°C° 0.2 mm 4 mps 761 mmHg 80%
    19:00 +1°C° 0.2 mm 4 mps 762 mmHg 80%
    20:00 +1°C° 0.2 mm 4 mps 763 mmHg 81%
    21:00 +1°C° 0.2 mm 4 mps 763 mmHg 82%
    22:00 +1°C° 0.1 mm 4 mps 764 mmHg 82%
    23:00 +1°C° 0.1 mm 4 mps 764 mmHg 82%

    Day after tomorrow, 17 December, Sunday

    Time Temperature Precipitation Wind Pressure Humidity
    00:00 +1°C° 0.1 mm 4 mps 764 mmHg 83%
    01:00 +1°C° 0.2 mm 4 mps 765 mmHg 83%
    02:00 +1°C° 0.2 mm 4 mps 765 mmHg 83%
    03:00 +1°C° 0.2 mm 4 mps 765 mmHg 83%
    04:00 +1°C° 0.1 mm 4 mps 765 mmHg 84%
    05:00 +1°C° 0.1 mm 4 mps 766 mmHg 85%
    06:00 +1°C° 0.1 mm 4 mps 766 mmHg 86%
    07:00 +1°C° 0.1 mm 4 mps 766 mmHg 85%
    08:00 +1°C° 0.1 mm 4 mps 767 mmHg 85%
    09:00 +1°C° 0.1 mm 4 mps 767 mmHg 85%
    10:00 +3°C° 0 mm 4 mps 768 mmHg 82%
    11:00 +2°C° 0 mm 5 mps 768 mmHg 80%
    12:00 +3°C° 0 mm 5 mps 768 mmHg 77%
    13:00 +3°C° 0 mm 5 mps 767 mmHg 78%
    14:00 +3°C° 0 mm 5 mps 767 mmHg 79%
    15:00 +3°C° 0 mm 5 mps 767 mmHg 80%
    16:00 +3°C° 0 mm 5 mps 767 mmHg 81%
    17:00 +2°C° 0 mm 6 mps 767 mmHg 82%
    18:00 +2°C° 0 mm 6 mps 767 mmHg 83%
    19:00 +3°C° 0.3 mm 7 mps 766 mmHg 85%
    20:00 +3°C° 0.3 mm 7 mps 766 mmHg 87%
    21:00 +4°C° 0.3 mm 8 mps 765 mmHg 89%
    22:00 +4°C° 0.8 mm 8 mps 765 mmHg 89%
    23:00 +5°C° 0.8 mm 8 mps 764 mmHg 89%

    18 December, Monday

    Time Temperature Precipitation Wind Pressure Humidity
    00:00 +5°C° 0.8 mm 9 mps 764 mmHg 89%
    01:00 +6°C° 0.4 mm 8 mps 764 mmHg 89%
    02:00 +6°C° 0.4 mm 7 mps 764 mmHg 88%
    03:00 +7°C° 0.4 mm 6 mps 764 mmHg 87%
    04:00 +5°C° 0 mm 6 mps 765 mmHg 85%
    05:00 +5°C° 0 mm 5 mps 765 mmHg 82%
    06:00 +4°C° 0 mm 4 mps 766 mmHg 79%
    07:00 +5°C° 0 mm 4 mps 766 mmHg 79%
    08:00 +5°C° 0 mm 4 mps 767 mmHg 79%
    09:00 +5°C° 0 mm 4 mps 768 mmHg 78%
    10:00 +5°C° 0 mm 4 mps 768 mmHg 76%
    11:00 +6°C° 0 mm 5 mps 768 mmHg 73%
    12:00 +7°C° 0 mm 5 mps 769 mmHg 71%
    13:00 +6°C° 0 mm 4 mps 769 mmHg 74%
    14:00 +6°C° 0 mm 4 mps 769 mmHg 76%
    15:00 +7°C° 0 mm 3 mps 770 mmHg 79%
    16:00 +5°C° 0 mm 3 mps 770 mmHg 82%
    17:00 +4°C° 0 mm 3 mps 770 mmHg 85%
    18:00 +5°C° 0 mm 2 mps 771 mmHg 88%
    19:00 +4°C° 0 mm 2 mps 772 mmHg 89%
    20:00 +4°C° 0 mm 2 mps 772 mmHg 89%
    21:00 +4°C° 0 mm 2 mps 773 mmHg 90%
    22:00 +4°C° 0 mm 2 mps 773 mmHg 90%
    23:00 +4°C° 0 mm 2 mps 773 mmHg 91%

    19 December, Tuesday

    Time Temperature Precipitation Wind Pressure Humidity
    00:00 +4°C° 0 mm 1 mps 773 mmHg 91%
    01:00 +4°C° 0 mm 1 mps 774 mmHg 92%
    02:00 +4°C° 0 mm 1 mps 774 mmHg 92%
    03:00 +4°C° 0 mm 1 mps 774 mmHg 92%
    04:00 +4°C° 0 mm 1 mps 774 mmHg 93%
    05:00 +4°C° 0 mm 1 mps 775 mmHg 93%
    06:00 +4°C° 0 mm 1 mps 775 mmHg 93%
    07:00 +4°C° 0 mm 1 mps 775 mmHg 93%
    08:00 +4°C° 0 mm 1 mps 776 mmHg 93%
    09:00 +3°C° 0 mm 2 mps 776 mmHg 93%
    10:00 +4°C° 0 mm 2 mps 776 mmHg 90%
    11:00 +5°C° 0 mm 2 mps 776 mmHg 87%
    12:00 +5°C° 0 mm 3 mps 776 mmHg 83%
    13:00 +5°C° 0 mm 2 mps 776 mmHg 85%
    14:00 +5°C° 0 mm 2 mps 776 mmHg 87%
    15:00 +5°C° 0 mm 2 mps 776 mmHg 88%
    16:00 +4°C° 0 mm 2 mps 776 mmHg 89%
    17:00 +3°C° 0 mm 3 mps 776 mmHg 90%
    18:00 +2°C° 0 mm 3 mps 776 mmHg 91%
    19:00 +2°C° 0.1 mm 3 mps 776 mmHg 90%
    20:00 +3°C° 0.1 mm 3 mps 777 mmHg 89%
    21:00 +3°C° 0.1 mm 4 mps 777 mmHg 88%
    22:00 +3°C° 0.2 mm 4 mps 777 mmHg 88%
    23:00 +3°C° 0.2 mm 4 mps 777 mmHg 88%

    20 December, Wednesday

    Time Temperature Precipitation Wind Pressure Humidity
    00:00 +4°C° 0.2 mm 4 mps 776 mmHg 88%
    01:00 +4°C° 0.1 mm 4 mps 776 mmHg 88%
    02:00 +4°C° 0.1 mm 4 mps 776 mmHg 89%
    03:00 +4°C° 0.1 mm 4 mps 776 mmHg 89%
    04:00 +4°C° 0.1 mm 4 mps 776 mmHg 91%
    05:00 +5°C° 0.1 mm 4 mps 776 mmHg 92%
    06:00 +5°C° 0.1 mm 3 mps 776 mmHg 93%
    07:00 +5°C° 0 mm 3 mps 777 mmHg 94%
    08:00 +7°C° 0 mm 3 mps 777 mmHg 95%
    09:00 +7°C° 0 mm 3 mps 777 mmHg 96%
    10:00 +8°C° 0 mm 3 mps 777 mmHg 95%
    11:00 +8°C° 0 mm 3 mps 777 mmHg 95%
    12:00 +9°C° 0 mm 3 mps 777 mmHg 94%
    13:00 +9°C° 0 mm 3 mps 777 mmHg 95%
    14:00 +9°C° 0 mm 3 mps 777 mmHg 95%
    15:00 +9°C° 0 mm 3 mps 777 mmHg 96%
    16:00 +9°C° 0 mm 2 mps 777 mmHg 96%
    17:00 +9°C° 0 mm 2 mps 777 mmHg 96%
    18:00 +8°C° 0 mm 2 mps 778 mmHg 96%
    19:00 +8°C° 0 mm 2 mps 778 mmHg 97%
    20:00 +8°C° 0 mm 2 mps 778 mmHg 97%
    21:00 +8°C° 0 mm 2 mps 778 mmHg 97%
    22:00 +7°C° 0 mm 2 mps 778 mmHg 97%
    23:00 +7°C° 0 mm 2 mps 778 mmHg 97%
    Show more